STARLINK-37086, 68253

Orbit data source: Space-Track

STARLINK-37086, 68253 is a payload satellite owned by SpaceX/Seattle (US) in LEO that was launched on Tue, 17 Mar 2026 UTC via an FALCON 9 launch vehicle from the Air Force Eastern Test Range (AFETR). Payload-class satellites include a variety of spacecraft equipped with specific instruments for various scientific and technological missions. These include communications satellites like Starlink; space stations such as the ISS; scientific satellites like the Hubble; Earth observation satellites from companies like Planet Labs, Umbra, and HawkEye 360; GPS; miniature CubeSats for education and research; and military/defense satellites.

Loading next visibility...
Identifier
68253, 2026-054X
Orbit
LEO
Country
Flag of USUS
Related business
Manufacturer
SpaceX/Seattle
Mission
Operational spacecraft
Bus & Motor
STARLINK V2MO, Unknown motor
Mass
575 kg wet, ~530 kg dry
Launch date (UTC)
2026-03-17 (2 months ago)
Launch vehicle
FALCON 9
Launch site
Air Force Eastern Test Range (AFETR)
Object type
Payload
Rocket body
Debris
Shape & HBR
Unknown shape, 17.7 m
Radar Cross Section
RCS unknown

Expand to show TLE details & history
Last TLE update: 23 hours ago

TLE from 23 hours ago
0 STARLINK-37086
1 68253U 26054X   26144.86010015  .00061167  00000-0  10986-2 0  9996
2 68253  53.1576 299.5481 0001018  62.8123 297.2989 15.49326595 10706
Epoch: 2026-05-24T20:38Z
TLE epoch observation values (Epoch: 2026-05-24T20:38:32.652Z)
Latitude
-0.00011°
Longitude
107.45578°
Altitude
419.284 km
Speed
7.661 km/s
True Right ascension
19h 58m 11s
True Declination
0° 00' 00"
Sunlit
Object was in full shadow at epoch
Visualization orbit readout
Latitude
Unknown
Longitude
Unknown
Altitude
Unknown
Speed
Unknown
Apparent Right ascension
Unknown
Apparent Declination
Unknown
Sunlit
N/A
Visualization observer readout
Local Sidereal Time
04:52:32
Azimuth
Unknown
Elevation
Unknown
Doppler factor
Unknown
Orbital elements
Apogee altitude
419.646 km
Perigee altitude
418.262 km
Semi-major axis
6,797.091 km
Eccentricity
0.0001
Inclination
53.1576°
RAAN
299.5481°
Arg. of periapsis
62.8123°
True anomaly
297.28853°
Mean anomaly
297.2989°
Eccentric anomaly
297.29372°
Mean motion
3.8731 °/min
Orbital period
92.95 mins
BSTAR
0.0010986
Loading maneuver chart data...
Computing Atmospheric mass density...
Loading historical data...
Loading historical data...
Loading historical data...
Loading historical data...
Loading historical data...
Loading historical data...
Loading historical data...

Documentation

Showing up to 5 results
|